CST,Max TemperatureF,Mean TemperatureF,Min TemperatureF,Max Dew PointF,MeanDew PointF,Min DewpointF,Max Humidity, Mean Humidity, Min Humidity, Max Sea Level PressureIn, Mean Sea Level PressureIn, Min Sea Level PressureIn, Max VisibilityMiles, Mean VisibilityMiles, Min VisibilityMiles, Max Wind SpeedMPH, Mean Wind SpeedMPH, Max Gust SpeedMPH,PrecipitationIn, CloudCover, Events, WindDirDegrees
2013-11-1,53,46,39,37,35,34,87,72,51,29.89,29.66,29.47,10,10,10,23,12,29,0.00,6,,306
2013-11-2,51,43,35,37,32,28,87,69,44,30.09,30.03,29.89,10,10,9,15,11,21,0.00,3,,313
2013-11-3,55,44,33,34,29,27,81,59,33,30.08,29.93,29.80,10,10,10,37,16,45,0.01,0,,160
2013-11-4,50,40,30,43,34,27,87,70,57,30.16,29.93,29.80,10,10,10,25,17,31,0.01,3,,218
2013-11-5,39,32,24,32,27,19,93,82,70,30.21,30.10,29.97,10,8,1,24,7,26,0.19,5,,2
2013-11-6,35,32,28,30,24,21,93,76,56,30.20,30.12,29.99,10,10,4,24,15,29,0.02,3,,291
2013-11-7,37,32,26,27,25,23,93,75,56,30.28,30.23,30.18,10,9,0,17,10,23,0.01,3,,268
2013-11-8,50,37,24,37,29,19,86,69,49,30.20,29.89,29.64,10,10,10,29,12,37,0.01,2,,177
2013-11-9,48,40,32,37,32,25,81,68,53,30.29,30.00,29.72,10,10,10,26,17,33,0.00,4,,294
2013-11-10,39,32,26,28,26,21,86,74,65,30.36,30.25,30.08,10,10,10,14,9,18,0.00,5,,230
2013-11-11,37,24,12,28,15,7,93,71,58,30.71,30.42,30.10,10,9,1,26,17,37,0.00,4,,336
2013-11-12,26,16,6,14,8,1,85,69,47,30.79,30.68,30.45,10,10,10,15,9,,0.00,0,,254
2013-11-13,53,37,21,32,22,10,70,57,38,30.44,30.11,29.91,10,10,10,22,15,29,0.00,0,,202
2013-11-14,53,42,30,41,32,25,93,76,58,29.90,29.85,29.80,10,10,10,13,8,,0.01,2,,234
2013-11-15,55,40,26,39,32,23,93,76,51,29.85,29.77,29.61,10,10,10,17,7,,0.00,0,,176
2013-11-16,59,48,37,52,39,28,93,80,57,29.60,29.39,29.22,10,8,2,20,14,24,0.00,3,,179
2013-11-17,46,40,35,37,33,28,87,73,61,29.91,29.55,29.35,10,10,8,28,12,34,0.00,5,,301
2013-11-18,41,32,24,28,22,19,86,66,49,30.24,30.12,29.92,10,10,10,25,15,30,0.00,2,,309
2013-11-19,48,36,24,34,27,19,86,65,50,30.23,30.02,29.87,10,10,10,31,16,37,0.00,1,,154
2013-11-20,44,38,32,32,29,27,87,65,53,30.00,29.88,29.83,10,9,3,26,19,34,0.00,4,,155
2013-11-21,33,25,17,32,19,12,93,79,64,30.51,30.27,30.00,10,8,0,25,15,32,0.00,8,,329
2013-11-22,33,20,8,10,7,1,85,59,32,30.62,30.55,30.48,10,10,10,23,14,29,0.00,1,,299
2013-11-23,17,10,3,3,0,-2,85,68,45,30.83,30.75,30.63,10,10,10,20,13,25,0.00,0,,315
2013-11-24,32,18,3,12,7,-2,85,62,41,30.68,30.35,30.05,10,10,10,29,14,40,0.00,1,,190
2013-11-25,42,33,24,25,20,12,69,58,45,30.11,30.04,29.97,10,10,10,22,16,29,0.00,5,,279
2013-11-26,32,22,12,19,8,3,73,58,40,30.37,30.25,30.11,10,10,10,28,20,38,0.00,4,,325
2013-11-27,24,14,5,10,6,1,85,68,46,30.36,30.20,30.00,10,10,9,21,9,25,0.00,0,,186
2013-11-28,28,19,10,14,8,1,92,65,46,30.48,30.28,30.00,10,10,10,20,9,26,0.00,1,,310
2013-11-29,33,20,6,21,12,0,92,69,48,30.47,30.31,30.09,10,10,10,23,9,30,0.00,0,,167
2013-11-30,46,34,21,27,22,18,86,67,43,30.15,30.07,30.02,10,10,10,15,10,17,0.00,0,,289